TimeEDT,TemperatureF,Dew PointF,Humidity,Sea Level PressureIn,VisibilityMPH,Wind Direction,Wind SpeedMPH,Gust SpeedMPH,PrecipitationIn,Events,Conditions,WindDirDegrees,DateUTC
12:10 AM,48.2,44.6,87,30.02,10.0,NNW,12.7,23.0,N/A,,Overcast,340,2012-10-06 04:10:00
12:53 AM,46.9,43.0,86,30.06,7.0,NW,18.4,25.3,0.01,Rain,Light Rain,320,2012-10-06 04:53:00
1:48 AM,44.6,42.8,93,30.04,9.0,North,6.9,-,0.03,Rain,Light Rain,360,2012-10-06 05:48:00
1:53 AM,45.0,42.1,90,30.05,9.0,NNW,5.8,-,0.03,Rain,Light Rain,340,2012-10-06 05:53:00
2:14 AM,44.6,42.8,93,30.06,8.0,NNW,6.9,-,0.02,Rain,Light Rain,330,2012-10-06 06:14:00
2:31 AM,44.6,42.8,93,30.07,10.0,NW,6.9,-,0.03,,Overcast,320,2012-10-06 06:31:00
2:42 AM,44.6,42.8,93,30.07,10.0,NW,6.9,-,0.03,Rain,Light Rain,320,2012-10-06 06:42:00
2:53 AM,44.1,42.1,93,30.05,10.0,NNW,8.1,-,0.03,,Overcast,340,2012-10-06 06:53:00
3:53 AM,44.1,42.1,93,30.07,10.0,NW,9.2,-,0.02,Rain,Light Rain,320,2012-10-06 07:53:00
4:28 AM,42.8,39.2,87,30.07,10.0,NNW,9.2,-,0.01,,Overcast,340,2012-10-06 08:28:00
4:37 AM,42.8,41.0,93,30.08,10.0,NNW,9.2,-,0.01,,Overcast,340,2012-10-06 08:37:00
4:47 AM,42.8,41.0,93,30.08,10.0,NNW,8.1,-,0.01,,Overcast,330,2012-10-06 08:47:00
4:53 AM,43.0,41.0,93,30.07,10.0,NNW,5.8,-,0.01,,Overcast,330,2012-10-06 08:53:00
5:18 AM,42.8,42.8,100,30.08,10.0,NNW,4.6,-,N/A,,Overcast,330,2012-10-06 09:18:00
5:22 AM,42.8,41.0,93,30.09,10.0,NW,5.8,-,N/A,,Overcast,310,2012-10-06 09:22:00
5:33 AM,42.8,41.0,93,30.10,10.0,NW,6.9,-,N/A,,Overcast,320,2012-10-06 09:33:00
5:53 AM,43.0,41.0,93,30.10,10.0,NW,4.6,-,N/A,,Overcast,310,2012-10-06 09:53:00
6:00 AM,42.8,41.0,93,30.10,10.0,NW,5.8,-,N/A,,Overcast,320,2012-10-06 10:00:00
6:53 AM,42.1,39.0,89,30.12,10.0,NW,8.1,-,N/A,,Mostly Cloudy,320,2012-10-06 10:53:00
7:39 AM,41.0,37.4,87,30.14,10.0,WNW,4.6,-,N/A,,Scattered Clouds,300,2012-10-06 11:39:00
7:53 AM,39.9,37.9,93,30.14,10.0,NW,3.5,-,N/A,,Clear,310,2012-10-06 11:53:00
8:53 AM,42.1,39.0,89,30.16,10.0,Variable,4.6,-,N/A,,Clear,0,2012-10-06 12:53:00
9:06 AM,42.8,39.2,87,30.17,10.0,WNW,5.8,-,N/A,,Partly Cloudy,300,2012-10-06 13:06:00
10:53 AM,46.9,36.0,66,30.18,10.0,Variable,3.5,-,N/A,,Clear,0,2012-10-06 14:53:00
11:53 AM,51.1,34.0,52,30.17,10.0,NNW,9.2,-,N/A,,Clear,340,2012-10-06 15:53:00
12:53 PM,53.1,33.1,47,30.15,10.0,NNW,5.8,-,N/A,,Clear,330,2012-10-06 16:53:00
1:53 PM,55.9,30.9,39,30.13,10.0,NW,5.8,-,N/A,,Clear,320,2012-10-06 17:53:00
2:53 PM,55.9,33.1,42,30.09,10.0,Calm,Calm,-,N/A,,Clear,0,2012-10-06 18:53:00
3:53 PM,57.9,30.0,35,30.10,10.0,Variable,5.8,-,N/A,,Clear,0,2012-10-06 19:53:00
4:53 PM,57.9,28.0,32,30.09,10.0,WNW,8.1,-,N/A,,Clear,290,2012-10-06 20:53:00
5:53 PM,57.0,30.0,36,30.10,10.0,NW,6.9,-,N/A,,Clear,310,2012-10-06 21:53:00
6:53 PM,53.1,32.0,45,30.12,10.0,WNW,4.6,-,N/A,,Clear,300,2012-10-06 22:53:00
7:53 PM,52.0,36.0,54,30.12,10.0,NNW,3.5,-,N/A,,Mostly Cloudy,330,2012-10-06 23:53:00
8:53 PM,51.1,35.1,54,30.13,10.0,Calm,Calm,-,N/A,,Overcast,0,2012-10-07 00:53:00
9:53 PM,51.1,35.1,54,30.12,10.0,North,3.5,-,N/A,,Overcast,350,2012-10-07 01:53:00
10:53 PM,50.0,35.1,57,30.14,10.0,WNW,3.5,-,N/A,,Overcast,290,2012-10-07 02:53:00
11:53 PM,48.9,36.0,61,30.14,10.0,WNW,4.6,-,N/A,,Overcast,290,2012-10-07 03:53:00